Other Public Products
Issued by NWS Grand Forks, ND

Home | Current Version | Previous Version | Graphics & Text | Print | Product List | Glossary On
Versions: 1 2 3 4 5 6 7 8 9 10 11 12 13 14 15 16 17 18 19 20 21 22 23 24 25 26 27 28 29 30 31 32 33 34 35 36 37 38 39 40 41 42 43 44 45 46 47 48 49 50
000
FPUS83 KFGF 290731
OPUFGF
PRAIRIE TO PINES WEATHER ROUNDUP
NATIONAL WEATHER SERVICE EASTERN NORTH DAKOTA/GRAND FORKS ND
200 AM CDT MON MAY 29 2017

 **SATELLITE DATA USED TO AUGMENT SKY COVER AT AUTOMATED STATIONS**
 *****  WEATHER ACROSS EASTERN NORTH DAKOTA  *****

CITY           SKY/WX    TMP DP  RH WIND       PRES   REMARKS
GRAND FORKS    CLOUDY    52  49  89 NW13      29.79S
GRAND FORKS AF CLOUDY    51  50  98 N15G22    29.80S
GRAND CITY NWS NOT AVBL
BUXTON           N/A     50  50  99 NW15        N/A
DEVILS LAKE    CLOUDY    52  45  76 NW18      29.86S
FARGO          CLOUDY    53  49  86 NW9       29.80S
WAHPETON ARPT  CLOUDY    52  45  76 W13       29.81S
$$

 *****  WEATHER ACROSS CENTRAL AND WESTERN NORTH DAKOTA  *****

CITY           SKY/WX    TMP DP  RH WIND       PRES   REMARKS
JAMESTOWN      CLOUDY    51  47  86 NW15      29.86S
BISMARCK       FAIR      51  42  71 NW7       29.97S
MINOT          MOCLDY    52  44  74 NW20G26   29.96R
MINOT AFB      MOCLDY    51  44  77 NW20      29.95S
GARRISON         N/A     48  42  80 NW16      29.97S
WILLISTON      FAIR      50  40  68 NW10      30.08R
DICKINSON      FAIR      40  35  83 W9        30.04S
HETTINGER      FAIR      34  31  88 NW3       30.08R
$$

 *****  OTHER OBSERVATIONS NORTHEAST NORTH DAKOTA  *****

CITY           SKY/WX    TMP DP  RH WIND       PRES   REMARKS
WALHALLA       NOT AVBL
LANGDON        DRIZZLE   48  48 100 NW18G28   29.83S
CAVALIER       LGT RAIN  50  48  93 NW16G23   29.80S
GRAFTON        CLOUDY    50  50 100 NW15      29.82R FOG
CANDO          NOT AVBL
FORT TOTTEN      N/A     52  46  80 NW8       29.95S
ROLLA          CLOUDY    50  46  87 NW16      29.88S
RUGBY          NOT AVBL
 ***** THE ABOVE OBSERVATIONS ARE NON NWS ARE NOT QUALITY
        CONTROLLED AND MAY MIS-REPORT RAIN FOR SNOW...
$$

 *****  OTHER OBSERVATIONS SOUTHEAST NORTH DAKOTA *****

CITY           SKY/WX    TMP DP  RH WIND       PRES   REMARKS
COOPERSTOWN    CLOUDY    52  46  82 NW15      29.84S
VALLEY CITY    CLOUDY    52  52 100 NW9       29.85S
OAKES          NOT AVBL
GWINNER        PTSUNNY   52  48  87 MISG      29.85R
SHEYENNE NWR     N/A     54  47  78 NW7       29.95S
BUFFALO          N/A     53  46  78 CALM        N/A
WYNDMERE         N/A     54  46  76 NW8         N/A
 ***** THE ABOVE OBSERVATIONS ARE NON NWS ARE NOT QUALITY
       CONTROLLED AND MAY MIS-REPORT RAIN FOR SNOW...
$$

  *****  WEATHER ACROSS NORTHERN MINNESOTA  *****

CITY           SKY/WX    TMP DP  RH WIND       PRES   REMARKS
FLAG ISLAND    CLOUDY    48  46  93 NW21G26   29.68S
WARROAD        CLOUDY    48  45  87 NW15      29.72R
ROSEAU         CLOUDY    50  45  81 NW9       29.72S
HALLOCK        CLOUDY    50  48  93 N15G21    29.78R FOG
THF RVR FALLS  LGT RAIN  49  48  97 NW15      29.76S FOG
HALSTAD          N/A     51  48  90 NW16        N/A
FOSSTON        DRIZZLE   46  46 100 NW12      29.75S
BAUDETTE       CLOUDY    50  47  89 NW13      29.68S
WASKISH        CLOUDY    50  46  87 NW13G20   29.69S
CROOKSTON      CLOUDY    52  48  87 NW14      29.78S
$$
  *****  WEATHER ACROSS CENTRAL AND WEST MINNESOTA  *****

CITY           SKY/WX    TMP DP  RH WIND       PRES   REMARKS
BEMIDJI        CLOUDY    49  47  93 NW10      29.71S
PARK RAPIDS    CLOUDY    51  45  79 NW12      29.73S
WADENA         CLOUDY    50  45  81 W8        29.74S
DETROIT LAKES  CLOUDY    50  46  87 NW15      29.78S
MOORHEAD       CLOUDY    52  48  87 NW10      29.81R
FERGUS FALLS   CLOUDY    52  46  82 NW14      29.79R
ELBOW LAKE     CLOUDY    52  47  83 NW18      29.80S
MORRIS MN      MOCLDY    54  46  76 W14       29.80S
STAPLES        CLOUDY    50  45  81 NW10G16   29.73S
WHEATON        CLOUDY    54  46  76 W15       29.84S
$$
  *****  WEATHER ELSEWHERE ACROSS MINNESOTA  *****

CITY           SKY/WX    TMP DP  RH WIND       PRES   REMARKS
DULUTH         FAIR      52  49  89 W10       29.62F
INTRNTL FALLS  LGT RAIN  51  48  89 NW9       29.63S
ELY            CLOUDY    50  48  93 W5        29.60R
CLOQUET        CLOUDY    52  46  82 W8        29.64S
BRAINERD       CLOUDY    52  47  83 W9        29.72S
HIBBING        CLOUDY    51  49  92 NW8       29.63S
ALEXANDRIA     CLOUDY    52  48  86 NW15G23   29.78S
SAINT CLOUD    CLOUDY    53  49  86 W13       29.73S
MINNEAPOLIS    MOCLDY    58  46  64 W10       29.71F
$$

  *****  WEATHER ACROSS SOUTH DAKOTA  *****

CITY           SKY/WX    TMP DP  RH WIND       PRES   REMARKS
SIOUX FALLS    MOCLDY    54  48  80 NW7       29.90R
BROOKINGS      FAIR      50  45  83 W6        29.87F
WATERTOWN      FAIR      47  44  90 W6        29.86S
HURON          LGT RAIN  51  46  83 W9        29.92S
SISSETON         N/A     55  46  71 NW15      29.83R
ABERDEEN       FAIR      50  40  68 W10       29.90S
MITCHELL       FAIR      51  47  86 W7        29.93R
PIERRE         FAIR      48  38  68 NW3       29.99R
MOBRIDGE       FAIR      52  40  63 NW9       29.96R
RAPID CITY     FAIR      50  40  68 NW10      30.10R
$$

  *****  SOME WEATHER IN NEARBY STATES *****

CITY           SKY/WX    TMP DP  RH WIND       PRES   REMARKS
GLASGOW MT     FAIR      44  29  55 N8        30.17R
GREAT FALLS MT FAIR      49  45  86 NW7       30.25R
CHEYENNE WY    MOCLDY    48  39  71 W14       30.28S
SCOTTSBLUFF NE FAIR      48  44  86 NW6       30.18F
OMAHA NE       FAIR      60  44  55 N5        29.88R
DES MOINES IA  FAIR      59  45  59 SW7       29.83F
DAVENPORT IA   FAIR      58  50  75 W7        29.80S
CHICAGO IL     CLOUDY    64  50  60 SW5       29.76S
EAU CLAIRE WI  MOCLDY    50  49  96 W5        29.69S
LA CROSSE WI   FAIR      58  50  75 CALM      29.73R
$$

  *****  SOME NATIONAL WEATHER *****

CITY           SKY/WX    TMP DP  RH WIND       PRES   REMARKS
LA GUARDIA NY  CLOUDY    61  51  70 E10       29.88F
RALEIGH NC     FAIR      71  64  78 CALM      29.86R
ATLANTA GA     MOCLDY    71  65  81 W9        29.98R
NEW ORLEANS LA MOCLDY    76  64  66 N14G25    30.02S
OKLAHOMA CITY  FAIR      57  49  74 SW3       30.06R
ALBUQUERQUE NM MOCLDY    68  32  26 VRB6      30.19S
SALT LAKE CITY FAIR      62  41  46 S3        30.14S
LOS ANGELES CA MOCLDY    60  58  92 W7        29.97F
BOISE ID       FAIR      63  43  48 SE7       30.08S
SEATTLE WA     FAIR      61  48  62 W8        30.04R
$$

*** WEATHER ACROSS MANITOBA...SASKATCHEWAN AND ONTARIO ***
                ***ONTARIO***

CITY           SKY/WX    TMP DP  RH WIND       PRES   REMARKS
GERALDTON      CLOUDY    54  50  87 N2        29.53F
THUNDER BAY    CLOUDY    50  50 100 E2        29.56F FOG
SIOUX LOOKOUT  MOCLDY    45  45 100 CALM      29.57S
TORONTO        CLOUDY    57  54  88 SE7       29.67R
BIG TROUT LK   MOCLDY    54  50  87 N7        29.59S
PICKLE LAKE    NOT AVBL
DRYDEN         CLOUDY    52  50  93 W7        29.59S
KENORA         LGT RAIN  48  46  93 NW14      29.66S
$$
                *** MANITOBA***

CITY           SKY/WX    TMP DP  RH WIND       PRES   REMARKS
BRANDON        CLOUDY    52  43  71 NW14      29.89S
DAUPHIN        CLOUDY    48  46  93 NW9       29.90S
ISLAND LAKE    NOT AVBL
PILOT MOUND      N/A     48  45  87 N10         N/A
THE PAS        CLOUDY    48  39  71 N17G28    29.93R
THOMPSON       LGT RAIN  37  36  93 N9        29.85S FOG
WINNIPEG       CLOUDY    48  45  87 N13       29.79S
LYNN LAKE      CLOUDY    41  39  93 N10G17    30.01S
CHURCHILL      LGT RAIN  32  32 100 N14       29.88S WCI  22
GILLAM         DRIZZLE   34  34 100 N13       29.80S FOG     WCI  25
$$
                ***SASKATCHEWAN***

CITY           SKY/WX    TMP DP  RH WIND       PRES   REMARKS
ESTEVAN        PTCLDY    48  43  81 NW16      30.04R
KINDERSLEY     CLEAR     43  32  65 N6        30.21S
LLOYDMINSTER   CLEAR     46  34  61 N6        30.22S
PRINCE ALBERT  PTCLDY    48  39  71 NW3       30.13S
REGINA         MOCLDY    46  39  76 NW6       30.10S
YORKTON          N/A     48  45  87 NW14      30.00S



USA.gov is the U.S. government's official web portal to all federal, state and local government web resources and services.